Other Public Products
Issued by NWS Charleston, SC

Current Version | Previous Version | Text Only | Print | Product List | Glossary Off
Versions: 1 2 3 4 5 6 7 8 9 10 11 12 13 14 15 16 17 18 19 20 21 22 23 24 25 26 27 28 29 30 31 32 33 34 35 36 37 38 39 40 41 42 43 44 45 46 47 48 49 50

216
FPUS82 KCHS 200027
OPUCHS

TEST...KCHS/KSAV Gateway Observations...TEST
National Weather Service Charleston SC
700 PM EST SUN FEB 19 2017

NOTE: "fair" indicates few or no clouds below 12,000 feet with no
significant weather and/or obstructions to visibility.

SCZ050-WAZ558-NCZ071-TXZ119-213-PAZ071-DCZ001-FLZ074-172-MI076-
NYZ176-178-MAZ016-IL014-TNZ027-NJZ106-GAZ044-MD014-200100-
...Gateway Observations for Charleston International...

CITY           SKY/WX    TMP DP  RH WIND       PRES   REMARKS
Chas Airport   CLEAR     66  47  50 NW5       30.03R
6HR MIN TEMP:  63; 6HR MAX TEMP:  76;

Seattle        CLOUDY    47  39  74 S21       29.50R
6HR MIN TEMP:  45; 6HR MAX TEMP:  47; 6HR PCP:  0.02;

Charlotte      CLEAR     63  42  46 NW6       30.06R
6HR MIN TEMP:  62; 6HR MAX TEMP:  72;

Dallas DFW     CLOUDY    75  66  73 SE21      29.80F
6HR MIN TEMP:  71; 6HR MAX TEMP:  77;

Dallas Love    CLOUDY    75  65  70 SE23G29   29.82F
6HR MIN TEMP:  72; 6HR MAX TEMP:  77; 6HR PCP: TRACE;

Philladelphia  PTCLDY    65  33  30 W8        29.92R
6HR MIN TEMP:  65; 6HR MAX TEMP:  70;

Wash National  CLEAR     64  40  41 NW8       29.98R
6HR MIN TEMP:  64; 6HR MAX TEMP:  71;

Baltimore      CLEAR     59  40  49 W7        29.95R
6HR MIN TEMP:  58; 6HR MAX TEMP:  71;

Miami          PTCLDY    77  68  73 NE7       30.02R
6HR MIN TEMP:  77; 6HR MAX TEMP:  86; 6HR PCP: TRACE;

Detroit        PTCLDY    57  28  33 N5        30.08R
6HR MIN TEMP:  56; 6HR MAX TEMP:  66;

Newark         CLEAR     63  30  28 NW6       29.88R
6HR MIN TEMP:  61; 6HR MAX TEMP:  69;

Laguardia      CLEAR     56  32  40 NW7       29.88R
6HR MIN TEMP:  56; 6HR MAX TEMP:  66;

J F K          CLEAR     61  30  31 NW10      29.89R
6HR MIN TEMP:  61; 6HR MAX TEMP:  68;

Boston Logan   MOCLDY    53  32  44 N5        29.81R
6HR MIN TEMP:  53; 6HR MAX TEMP:  59;

Ft. Lauderdale PTCLDY    75  69  81 NE10      30.02R
6HR MIN TEMP:  75; 6HR MAX TEMP:  88;

Chicago O`Hare PTCLDY    56  31  38 E7        30.06R
6HR MIN TEMP:  56; 6HR MAX TEMP:  69;

Chicago Midway MOCLDY    53  31  42 E7        30.07R
6HR MIN TEMP:  53; 6HR MAX TEMP:  67;

Houston Bush   MOCLDY    72  67  84 SE21G26   29.86F
6HR MIN TEMP:  72; 6HR MAX TEMP:  79; 6HR PCP: TRACE;

Houston Hobby  CLOUDY    72  68  87 SE13G20   29.85F
6HR MIN TEMP:  73; 6HR MAX TEMP:  80;

Nashville      PTCLDY    63  49  60 E5        30.11F
6HR MIN TEMP:  61; 6HR MAX TEMP:  70;

Atlanta        CLEAR     63  47  55 NW7       30.10S
6HR MIN TEMP:  63; 6HR MAX TEMP:  68;


$$

GAZ044-118-TXZ119-213-NCZ071-DCZ001-MDZ014-506-PAZ021-071-NJZ106-
NYZ176-178-MAZ106-OHZ011-021-055-MIZ076-KYZ091-ILZ014-INZ047-
MNZ060-200100-
...Gateway Observations for Savannah International...

CITY           SKY/WX    TMP DP  RH WIND       PRES   REMARKS
Savannah Arpt  CLEAR     64  49  57 W3        30.05R
6HR MIN TEMP:  64; 6HR MAX TEMP:  78;

Atlanta        CLEAR     63  47  55 NW7       30.10S
6HR MIN TEMP:  63; 6HR MAX TEMP:  68;

Charlotte      CLEAR     63  42  46 NW6       30.06R
6HR MIN TEMP:  62; 6HR MAX TEMP:  72;

Dallas DFW     CLOUDY    75  66  73 SE21      29.80F
6HR MIN TEMP:  71; 6HR MAX TEMP:  77;

Houston Bush   MOCLDY    72  67  84 SE21G26   29.86F
6HR MIN TEMP:  72; 6HR MAX TEMP:  79; 6HR PCP: TRACE;

Wash National  CLEAR     64  40  41 NW8       29.98R
6HR MIN TEMP:  64; 6HR MAX TEMP:  71;

Wash Dulles    CLEAR     61  37  41 NW17      29.98R
6HR MIN TEMP:  60; 6HR MAX TEMP:  69;

Baltimore      CLEAR     59  40  49 W7        29.95R
6HR MIN TEMP:  58; 6HR MAX TEMP:  71;

Philadelphia   PTCLDY    65  33  30 W8        29.92R
6HR MIN TEMP:  65; 6HR MAX TEMP:  70;

Newark         CLEAR     63  30  28 NW6       29.88R
6HR MIN TEMP:  61; 6HR MAX TEMP:  69;

Laguardia      CLEAR     56  32  40 NW7       29.88R
6HR MIN TEMP:  56; 6HR MAX TEMP:  66;

J F K          CLEAR     61  30  31 NW10      29.89R
6HR MIN TEMP:  61; 6HR MAX TEMP:  68;

Boston         MOCLDY    53  32  44 N5        29.81R
6HR MIN TEMP:  53; 6HR MAX TEMP:  59;

Pittsburg      PTCLDY    54  35  48 W8        30.06R
6HR MIN TEMP:  54; 6HR MAX TEMP:  65;

Akron          PTCLDY    55  33  43 CALM      30.08R
6HR MIN TEMP:  51; 6HR MAX TEMP:  64;

Cleveland      PTCLDY    55  34  45 CALM      30.10R
6HR MIN TEMP:  55; 6HR MAX TEMP:  64;

Cincinnati     PTCLDY    50  46  86 S7        30.13R
6HR MIN TEMP:  50; 6HR MAX TEMP:  60;

Columbus       CLEAR     48  45  89 S6        30.11S
Detroit        PTCLDY    57  28  33 N5        30.08R
6HR MIN TEMP:  56; 6HR MAX TEMP:  66;

Chicago O`Hare PTCLDY    56  31  38 E7        30.06R
6HR MIN TEMP:  56; 6HR MAX TEMP:  69;

Minneapolis    CLOUDY    53  39  59 SE14      29.88S
6HR MIN TEMP:  53; 6HR MAX TEMP:  59;

Indianapolis   PTCLDY    56  45  66 S6        30.10R
6HR MIN TEMP:  55; 6HR MAX TEMP:  65;


$$




USA.gov is the U.S. government's official web portal to all federal, state and local government web resources and services.